Weather History for KCKB - December, 2013

Change the Weather History Date:

Tuesday, December 3, 2013

  Actual Average Record
Temperature  
Mean Temperature 47 °F -  
Max Temperature 57 °F 46 °F 73 °F (1982)
Min Temperature 37 °F 26 °F 4 °F (1976)
Degree Days  
Heating Degree Days 18    
Moisture  
Dew Point 37 °F    
Average Humidity 71    
Maximum Humidity 89    
Minimum Humidity 46    
Precipitation  
Precipitation 0.00 in - - ()
Sea Level Pressure  
Sea Level Pressure 29.87 in    
Wind  
Wind Speed 2 mph (SW)    
Max Wind Speed 8 mph    
Max Gust Speed -    
Visibility 10 miles    
Events      
Averages and records for this station are not official NWS values.
T = Trace of Precipitation, MM = Missing Value Source: NWS Daily Summary

Daily Weather History Graph

Daily Weather History Graph

Search for Another Location

Airport or City:

Trip Planner

Search our weather history database for the weather conditions in past years. The results will help you decide how hot, cold, wet, or windy it might be!

Date:

Astronomy

Dec. 03, 2013 Rise Set
Actual Time 7:23 AM EST 4:57 PM EST
Civil Twilight 6:54 AM EST 5:27 PM EST
Nautical Twilight 6:20 AM EST 6:00 PM EST
Astronomical Twilight 5:48 AM EST 6:33 PM EST
Moon 7:51 AM EST (12/3) 5:59 PM EST (12/3)
Length of Visible Light 10h 33m
Length of Day
9h 34m
New Moon, 1% of the Moon is Illuminated
Dec 3
New Moon
Dec 9
First Quarter
Dec 17
Full
Dec 25
Last Quarter
Jan 1
New

Hourly Weather History & Observations

Time (EST) Temp. Windchill Dew Point Humidity Pressure Visibility Wind Dir Wind Speed Gust Speed Precip Events Conditions
12:53 AM 42.1 °F - 36.0 °F 79% 29.82 in 10.0 mi Calm Calm - N/A   Overcast
1:53 AM 42.1 °F 40.2 °F 36.0 °F 79% 29.83 in 10.0 mi North 3.5 mph - N/A   Overcast
2:53 AM 41.0 °F - 36.0 °F 82% 29.84 in 10.0 mi Calm Calm - N/A   Overcast
3:53 AM 41.0 °F 39.0 °F 36.0 °F 82% 29.83 in 10.0 mi NNE 3.5 mph - N/A   Overcast
4:53 AM 41.0 °F 39.0 °F 35.1 °F 79% 29.85 in 9.0 mi North 3.5 mph - N/A   Overcast
5:53 AM 41.0 °F - 35.1 °F 79% 29.86 in 9.0 mi Calm Calm - N/A   Overcast
6:53 AM 37.9 °F - 34.0 °F 86% 29.87 in 8.0 mi Calm Calm - N/A   Mostly Cloudy
7:53 AM 37.0 °F - 34.0 °F 89% 29.88 in 6.0 mi Calm Calm - N/A   Partly Cloudy
8:53 AM 41.0 °F - 36.0 °F 82% 29.89 in 7.0 mi Calm Calm - N/A   Clear
9:53 AM 48.0 °F - 37.0 °F 66% 29.89 in 10.0 mi Calm Calm - N/A   Clear
10:53 AM 52.0 °F - 37.9 °F 59% 29.90 in 10.0 mi Variable 3.5 mph - N/A   Clear
11:53 AM 55.0 °F - 39.0 °F 55% 29.88 in 10.0 mi Variable 4.6 mph - N/A   Clear
12:53 PM 57.0 °F - 39.0 °F 51% 29.85 in 10.0 mi ESE 3.5 mph - N/A   Clear
1:53 PM 57.9 °F - 37.0 °F 46% 29.87 in 10.0 mi SSW 6.9 mph - N/A   Clear
2:53 PM 55.9 °F - 37.9 °F 51% 29.86 in 10.0 mi SW 8.1 mph - N/A   Clear
3:53 PM 53.1 °F - 37.9 °F 57% 29.87 in 10.0 mi SSW 6.9 mph - N/A   Partly Cloudy
4:53 PM 51.1 °F - 37.0 °F 59% 29.87 in 10.0 mi Calm Calm - N/A   Partly Cloudy
5:53 PM 48.0 °F - 37.0 °F 66% 29.87 in 10.0 mi Calm Calm - N/A   Clear
6:53 PM 46.0 °F 44.8 °F 37.0 °F 71% 29.89 in 10.0 mi WSW 3.5 mph - N/A   Clear
7:53 PM 45.0 °F - 37.0 °F 74% 29.90 in 10.0 mi Calm Calm - N/A   Clear
8:53 PM 45.0 °F - 37.0 °F 74% 29.88 in 10.0 mi Calm Calm - N/A   Clear
9:53 PM 43.0 °F - 37.0 °F 80% 29.88 in 10.0 mi Calm Calm - N/A   Clear
10:53 PM 42.1 °F - 36.0 °F 79% 29.89 in 10.0 mi Calm Calm - N/A   Clear
11:53 PM 41.0 °F - 36.0 °F 82% 29.89 in 10.0 mi Calm Calm - N/A   Scattered Clouds